Wind_Speed
9 11 12 13 14 14 12 12 13 14 15 15 15 15 15 15 15 13 13 13 13 12 11 9 7 5 4 3 4 4 4 4 3 4 5 6 7 7 8 9 9 10 10 9 8 6 4 3 2
8 9 10 10 11 10 9 9 10 11 12 13 14 14 14 14 14 12 10 10 9 8 7 6 5 4 3 3 2 2 2 1 1 3 5 6 7 7 7 8 9 9 9 9 8 7 5 3 3
7 7 7 7 7 8 9 9 9 9 10 10 10 11 11 11 12 11 10 8 7 6 5 4 3 2 2 2 2 2 2 2 2 3 5 6 7 8 8 9 9 10 10 10 10 9 7 6 5
8 6 6 5 5 5 6 5 5 6 6 7 7 8 8 8 9 10 10 8 7 5 4 3 2 1 2 2 4 4 4 4 3 3 4 5 6 7 8 9 9 10 10 10 10 11 10 8 7
9 7 5 4 4 4 2 0 1 1 2 4 5 7 7 7 7 8 9 8 6 5 4 4 3 3 4 5 6 7 7 6 4 3 3 4 5 7 9 9 9 9 9 10 10 11 11 10 8
10 9 7 7 6 5 3 4 6 7 6 6 7 7 7 7 7 6 7 6 6 5 5 5 4 5 6 7 8 8 8 7 6 4 4 5 6 8 9 10 9 8 8 9 9 10 11 11 10
10 10 9 9 10 9 7 6 6 8 9 9 9 10 8 7 7 6 6 6 6 6 6 5 6 6 7 8 9 9 8 8 7 7 7 8 10 11 11 11 9 7 6 7 8 9 10 11 11
10 9 9 10 11 11 10 10 8 8 9 10 10 10 9 8 7 7 6 6 6 6 6 6 7 8 9 9 10 10 9 9 9 10 11 12 13 13 12 11 10 8 7 7 7 8 10 10 11
12 12 12 11 10 10 10 11 10 9 9 9 9 8 9 9 8 8 8 8 8 8 8 8 8 9 10 10 11 11 11 10 11 12 13 15 15 15 13 12 10 9 9 7 7 8 9 10 11
16 16 17 14 12 10 10 10 10 9 8 8 7 7 8 9 8 9 8 8 9 9 9 9 9 10 10 11 12 12 13 13 13 13 14 15 16 15 14 13 11 11 11 10 8 7 8 9 10
21 21 21 20 18 15 14 12 11 11 11 9 8 7 8 10 10 10 9 9 9 9 10 10 10 10 11 12 12 13 14 14 14 14 15 16 16 16 15 14 13 13 14 14 12 10 9 9 10
25 25 25 25 23 21 19 18 16 15 15 13 12 11 11 12 13 13 12 12 11 11 12 12 13 13 14 15 15 16 16 16 16 17 17 18 18 18 18 17 17 16 17 16 16 14 12 12 11
30 29 28 28 28 27 26 24 22 20 20 18 17 17 16 16 16 16 17 17 16 16 16 16 17 18 19 19 21 21 21 21 20 20 20 21 21 22 22 22 21 20 20 19 19 18 16 15 15
33 32 32 32 32 32 31 30 27 26 25 23 23 23 22 21 21 21 21 22 22 22 22 22 22 23 24 24 25 25 26 25 24 24 24 24 24 25 25 25 25 24 23 23 22 21 21 19 18
36 35 36 36 37 37 35 34 34 33 30 28 28 28 27 27 27 27 27 27 28 28 28 28 28 29 29 30 30 31 31 31 30 30 29 29 29 29 29 28 27 27 25 25 24 24 24 23 22
39 38 39 41 40 40 38 36 42 39 35 34 33 32 32 32 32 32 32 32 33 33 33 33 33 34 35 36 36 36 36 36 36 36 36 36 36 36 36 35 33 31 29 28 27 27 27 27 27
39 40 41 42 43 43 41 40 46 43 41 40 39 38 38 37 37 37 37 37 37 37 37 37 38 38 40 41 41 41 41 40 40 41 41 41 42 42 42 42 41 38 35 33 30 30 30 31 31
33 35 37 40 43 43 44 46 47 45 44 42 42 41 41 41 42 42 42 42 42 41 41 41 42 42 44 45 45 45 44 44 44 45 46 47 48 47 47 47 46 44 41 37 35 34 34 34 34
23 24 27 32 35 38 42 45 47 47 45 44 43 42 40 40 41 42 43 44 44 43 43 44 44 45 46 47 47 48 47 47 48 49 50 50 51 52 52 52 51 49 45 40 38 37 36 36 36
21 22 24 25 27 29 33 36 39 41 41 41 41 40 39 38 38 38 40 41 42 42 43 44 44 46 48 49 50 51 51 50 50 50 51 53 54 56 57 56 54 52 48 44 40 40 39 38 37
25 26 27 28 28 29 32 31 34 35 36 36 37 37 37 36 36 36 38 40 41 42 43 45 47 48 49 50 51 51 52 51 51 53 54 54 54 55 57 57 56 54 49 45 43 41 40 38 37
28 28 28 29 29 29 33 33 34 38 36 37 38 39 39 39 39 39 40 42 43 44 45 46 47 48 49 51 52 52 53 54 54 56 57 55 54 54 55 53 53 53 49 45 42 39 37 36 35
27 27 26 27 27 28 29 32 29 36 35 37 39 40 41 41 42 43 44 44 45 45 46 47 48 50 51 53 55 56 57 58 59 59 59 57 55 54 49 46 46 44 44 41 38 36 35 34 34
22 22 23 23 24 24 25 28 29 29 30 32 34 35 35 36 37 38 40 41 43 44 45 47 49 51 53 55 57 59 60 61 62 62 61 58 56 52 47 43 39 38 38 36 34 34 34 33 34
16 17 17 16 16 17 22 23 26 27 27 29 29 28 27 27 28 29 31 33 35 38 40 43 46 49 52 54 56 58 60 62 63 62 60 58 54 48 43 40 38 36 34 32 33 33 33 33 34
15 15 16 17 16 16 17 18 20 21 23 25 25 25 24 25 25 26 28 30 32 35 37 40 43 46 49 52 55 57 58 60 61 60 58 55 50 44 40 39 37 35 32 32 32 33 33 33 34
15 15 17 19 19 18 18 19 20 22 24 25 25 26 26 27 28 29 30 31 33 34 36 39 42 46 49 52 55 56 57 58 58 56 54 51 46 43 40 38 38 37 34 33 33 33 33 33 32
16 18 19 21 24 24 23 22 24 25 27 29 30 31 31 31 32 33 33 34 35 37 39 41 44 47 50 52 54 55 55 54 52 50 48 46 43 41 39 36 38 38 35 33 33 33 32 30 29
20 21 24 26 28 30 30 28 28 29 33 35 35 34 33 33 34 35 36 36 37 39 40 42 45 47 49 51 50 49 48 48 45 44 42 41 39 37 35 33 34 34 33 32 31 30 29 28 28
23 24 27 29 31 33 35 35 33 33 37 40 40 38 36 35 35 36 36 37 38 39 40 41 43 44 44 43 41 40 41 40 39 38 37 36 34 33 32 31 31 31 30 29 28 28 27 27 28
Wind_Direction
136 130 125 122 120 117 119 120 120 119 118 116 113 112 111 111 111 113 120 127 132 134 135 134 135 139 149 159 157 153 149 140 118 81 57 49 48 50 52 53 51 50 48 46 45 45 42 37 21
155 140 135 132 126 128 140 140 134 129 126 123 121 120 120 120 120 119 121 127 133 140 143 142 145 152 165 182 185 180 172 153 102 57 46 44 42 40 39 38 36 34 32 29 27 23 16 1 333
177 162 151 146 142 152 156 159 153 147 141 135 132 131 132 133 132 128 126 130 135 141 147 145 144 165 189 219 251 276 307 333 355 20 36 39 39 36 32 26 22 20 18 19 17 12 3 345 325
189 177 164 157 167 172 167 165 173 164 161 157 155 154 156 157 151 142 141 143 148 155 166 166 163 195 247 282 299 307 313 322 337 5 25 31 30 26 19 12 7 7 10 14 14 12 7 351 327
192 191 185 187 205 215 208 242 324 313 226 208 205 200 201 195 184 169 165 166 171 182 196 205 211 239 268 287 301 308 311 313 317 334 357 5 0 356 354 352 352 355 1 6 8 11 11 5 343
196 200 208 220 233 240 270 312 330 340 329 308 287 266 252 239 225 212 203 204 213 226 232 237 244 255 265 278 292 304 305 303 299 297 304 317 324 326 328 333 335 340 350 359 3 6 7 4 356
205 207 216 230 240 247 256 275 308 330 336 326 312 295 283 265 256 248 241 239 244 251 254 256 263 267 271 277 283 290 292 289 285 281 285 295 305 310 311 312 312 315 326 342 350 356 2 1 359
220 218 224 231 239 246 249 258 276 301 319 328 326 308 292 278 274 269 270 272 270 267 263 263 267 270 273 276 281 283 285 281 279 281 286 291 296 301 302 300 291 285 290 311 334 348 356 358 359
234 236 236 235 237 243 245 251 263 283 303 322 332 319 300 286 278 276 276 276 276 274 272 270 270 273 275 277 281 284 285 284 286 289 292 294 296 297 297 294 280 268 268 281 308 333 347 352 356
239 244 247 246 243 244 246 252 261 274 285 302 324 327 308 296 287 280 276 273 275 274 272 273 274 276 277 281 286 289 288 289 290 293 297 298 296 294 292 288 275 261 259 265 280 306 325 339 348
241 249 255 256 254 252 251 253 260 269 273 279 291 306 306 299 294 287 280 275 274 274 271 271 276 278 277 281 286 291 292 292 291 294 296 296 295 292 288 282 274 264 259 258 264 279 298 314 329
243 249 257 262 263 262 260 257 257 260 265 270 274 279 284 289 291 287 283 280 276 271 270 270 272 275 275 277 280 283 286 288 290 290 291 290 289 286 283 279 274 269 262 259 261 268 281 296 308
244 249 257 264 267 266 265 262 260 262 262 264 266 269 272 277 281 280 279 278 274 270 268 267 265 267 268 270 274 278 280 281 282 284 285 285 284 282 279 275 273 271 267 266 266 268 276 285 294
246 249 254 259 263 265 266 267 267 264 263 264 264 265 267 269 271 272 272 272 271 269 267 264 262 263 265 267 270 273 276 278 279 280 281 282 281 279 277 275 273 272 269 270 269 271 276 280 285
246 248 252 254 258 263 266 268 267 264 263 262 262 263 263 264 266 267 269 270 269 269 268 266 264 264 265 267 269 270 272 274 276 277 278 279 280 279 276 274 273 272 271 270 269 271 275 278 281
247 248 251 253 256 260 264 263 265 267 266 265 264 264 264 264 266 268 269 269 269 269 268 268 267 266 266 266 267 268 270 271 273 275 276 278 278 278 277 275 274 274 272 269 269 272 275 278 281
248 249 250 254 255 257 260 258 264 270 269 267 267 266 267 266 267 268 268 269 270 270 269 269 269 267 267 268 268 269 269 270 271 273 274 275 275 275 275 274 275 274 272 270 270 274 277 279 281
252 253 253 253 254 256 257 259 262 266 267 268 268 267 268 268 269 270 270 270 270 270 269 268 267 266 265 266 267 267 268 268 269 270 271 271 271 271 271 271 272 273 272 269 270 273 276 277 279
253 254 255 255 255 256 257 259 262 265 267 268 269 270 270 270 270 271 271 271 270 270 269 267 266 265 265 265 266 266 267 268 269 270 271 270 270 269 267 267 268 269 268 267 269 273 275 276 277
260 260 259 260 259 259 260 261 262 264 266 268 270 270 270 269 268 267 267 267 268 268 268 267 266 266 267 267 268 268 268 269 271 273 274 274 271 269 266 263 264 264 265 265 267 271 273 273 275
265 264 264 263 263 263 264 264 264 262 263 264 265 266 266 265 265 264 263 264 265 266 266 266 267 268 268 269 270 270 271 270 273 276 278 278 276 274 270 263 260 260 259 260 263 266 269 269 271
269 268 268 268 266 264 267 268 268 269 265 263 263 262 263 263 264 263 263 263 263 264 265 265 266 266 269 271 273 274 274 275 277 279 281 283 282 282 277 266 259 256 256 258 259 262 263 266 269
270 272 271 271 269 268 270 271 271 272 273 269 266 265 265 265 265 266 266 266 266 267 267 268 268 268 270 271 274 275 276 277 278 281 282 284 287 286 281 270 258 254 253 255 255 256 259 264 269
273 275 276 277 278 280 275 274 275 275 276 273 271 270 270 269 269 269 269 269 269 269 269 269 269 270 270 271 273 274 275 276 278 280 282 284 286 286 283 276 261 256 253 252 251 254 258 263 269
278 281 285 287 287 285 283 279 277 275 271 270 272 273 273 273 273 274 274 274 273 273 273 272 273 273 273 273 273 273 274 275 276 278 280 282 284 283 281 273 264 258 253 250 251 255 259 265 270
278 282 283 282 278 276 284 285 281 279 274 272 273 273 274 276 278 279 281 281 281 280 279 278 278 277 276 275 274 274 274 274 275 276 277 278 278 278 278 269 261 255 253 253 254 257 261 268 272
281 279 281 285 285 285 284 283 281 282 281 278 278 277 277 278 280 283 285 287 288 288 287 286 284 282 280 278 276 274 273 272 272 273 272 271 269 269 272 270 262 255 252 253 256 259 265 268 270
285 285 285 285 289 288 286 285 283 284 282 280 280 280 280 281 283 286 289 291 294 295 295 294 292 290 287 284 280 275 271 269 269 268 267 263 262 263 264 267 262 255 251 253 257 262 264 266 267
287 286 286 287 288 289 289 286 285 285 284 283 282 281 282 283 284 287 291 294 297 300 300 300 299 298 296 290 283 274 269 266 263 261 258 256 256 257 260 259 257 253 253 255 259 262 262 264 265
284 287 289 291 292 292 293 293 292 288 285 283 283 283 283 283 284 287 291 295 299 303 305 304 303 304 303 296 284 273 264 257 253 251 248 247 248 250 252 251 251 251 253 257 260 261 261 262 264
Height
5933 5934 5934 5935 5937 5938 5938 5937 5936 5936 5935 5935 5936 5936 5936 5937 5938 5940 5939 5937 5938 5938 5937 5936 5936 5936 5936 5936 5936 5935 5934 5932 5931 5930 5929 5927 5926 5925 5924 5923 5922 5921 5920 5918 5917 5915 5914 5913 5912
5934 5934 5936 5937 5938 5940 5940 5938 5938 5938 5937 5937 5937 5937 5937 5938 5938 5939 5938 5939 5939 5939 5939 5938 5938 5937 5937 5937 5936 5935 5935 5934 5932 5931 5929 5928 5927 5926 5925 5924 5923 5922 5920 5919 5918 5916 5914 5913 5912
5934 5935 5936 5937 5938 5940 5940 5940 5939 5939 5939 5939 5939 5939 5939 5939 5939 5939 5939 5939 5939 5939 5939 5939 5938 5938 5938 5938 5937 5936 5935 5934 5933 5931 5930 5929 5928 5927 5926 5925 5924 5922 5921 5919 5918 5916 5914 5913 5911
5934 5936 5937 5938 5938 5939 5939 5940 5940 5940 5940 5940 5940 5941 5940 5940 5940 5939 5939 5939 5940 5939 5939 5939 5939 5939 5939 5939 5938 5937 5936 5935 5933 5932 5931 5930 5929 5928 5927 5926 5925 5923 5921 5919 5918 5916 5914 5912 5911
5934 5936 5938 5938 5938 5938 5939 5940 5940 5941 5941 5941 5941 5941 5941 5941 5940 5940 5939 5939 5939 5939 5939 5939 5939 5939 5939 5939 5938 5938 5936 5935 5934 5932 5931 5930 5930 5929 5927 5926 5925 5923 5921 5919 5917 5916 5914 5912 5910
5934 5936 5938 5939 5938 5939 5939 5939 5939 5940 5940 5941 5940 5940 5940 5940 5939 5939 5939 5939 5939 5939 5938 5938 5938 5938 5938 5938 5938 5937 5936 5934 5933 5932 5931 5930 5929 5928 5927 5926 5924 5923 5921 5919 5917 5915 5913 5911 5909
5933 5935 5936 5937 5938 5939 5939 5939 5939 5939 5939 5939 5939 5938 5938 5938 5937 5937 5937 5938 5938 5937 5937 5936 5936 5936 5936 5936 5936 5935 5934 5933 5932 5931 5930 5929 5928 5927 5925 5924 5923 5922 5921 5919 5917 5915 5913 5911 5909
5931 5934 5935 5936 5937 5938 5938 5938 5938 5938 5938 5938 5937 5936 5936 5936 5935 5936 5936 5936 5936 5935 5935 5934 5934 5934 5934 5934 5934 5933 5932 5932 5930 5929 5928 5927 5925 5924 5922 5921 5921 5920 5919 5918 5916 5914 5913 5910 5908
5928 5932 5933 5934 5935 5937 5937 5937 5938 5937 5937 5937 5936 5935 5934 5934 5933 5933 5933 5933 5933 5933 5932 5932 5932 5932 5932 5931 5931 5931 5930 5929 5928 5926 5925 5923 5922 5921 5920 5919 5918 5917 5916 5916 5915 5913 5911 5910 5908
5926 5929 5930 5931 5933 5935 5935 5936 5936 5937 5936 5936 5935 5934 5933 5932 5931 5931 5931 5930 5930 5930 5929 5929 5929 5929 5929 5929 5928 5928 5927 5926 5925 5923 5922 5920 5919 5918 5917 5916 5915 5914 5913 5913 5912 5911 5909 5908 5906
5924 5925 5925 5927 5930 5932 5933 5934 5934 5934 5934 5934 5933 5932 5931 5931 5930 5929 5928 5928 5927 5927 5927 5926 5926 5926 5926 5926 5925 5924 5923 5922 5921 5920 5919 5918 5916 5915 5914 5913 5912 5911 5910 5909 5909 5908 5907 5906 5904
5921 5921 5921 5923 5925 5928 5929 5930 5931 5931 5931 5931 5931 5930 5929 5928 5928 5927 5927 5926 5925 5924 5924 5923 5923 5923 5922 5922 5921 5920 5920 5919 5918 5917 5916 5915 5913 5912 5911 5909 5908 5908 5906 5906 5905 5904 5903 5902 5901
5917 5918 5918 5919 5920 5922 5924 5925 5927 5928 5928 5928 5927 5927 5926 5926 5925 5924 5924 5923 5922 5921 5920 5920 5919 5918 5918 5917 5916 5916 5915 5914 5914 5913 5912 5911 5910 5909 5907 5906 5905 5903 5902 5901 5901 5900 5899 5899 5897
5913 5914 5914 5914 5913 5914 5917 5919 5922 5923 5923 5923 5923 5922 5922 5922 5921 5920 5919 5919 5918 5916 5916 5915 5914 5914 5913 5912 5911 5911 5910 5909 5909 5908 5907 5906 5905 5904 5903 5901 5900 5899 5898 5897 5896 5896 5895 5894 5893
5907 5909 5910 5909 5909 5908 5911 5913 5914 5914 5916 5917 5917 5917 5917 5916 5916 5915 5914 5914 5913 5912 5911 5910 5909 5909 5908 5907 5906 5905 5904 5904 5903 5902 5902 5901 5900 5898 5897 5896 5895 5894 5893 5892 5891 5891 5890 5889 5888
5902 5905 5905 5903 5905 5904 5908 5909 5904 5905 5909 5910 5911 5911 5911 5910 5910 5909 5908 5907 5907 5906 5905 5905 5904 5903 5902 5900 5899 5898 5898 5897 5896 5895 5895 5894 5893 5892 5890 5889 5888 5888 5887 5886 5885 5885 5884 5883 5882
5896 5898 5898 5899 5899 5900 5902 5901 5896 5898 5900 5902 5903 5903 5903 5903 5903 5902 5901 5901 5900 5900 5899 5898 5898 5897 5895 5894 5893 5892 5891 5890 5889 5888 5887 5886 5885 5883 5882 5880 5880 5880 5880 5879 5878 5878 5877 5876 5875
5889 5891 5892 5892 5892 5894 5894 5893 5891 5892 5893 5893 5894 5895 5895 5895 5894 5894 5893 5892 5892 5892 5891 5891 5890 5889 5887 5886 5885 5884 5883 5882 5880 5879 5878 5876 5875 5874 5872 5871 5870 5870 5871 5870 5870 5870 5869 5868 5867
5884 5885 5885 5884 5885 5887 5886 5886 5885 5885 5886 5886 5886 5886 5886 5886 5885 5885 5884 5883 5883 5883 5882 5882 5881 5880 5879 5878 5876 5875 5874 5872 5871 5869 5867 5865 5864 5862 5860 5859 5859 5859 5860 5860 5860 5860 5860 5859 5858
5880 5880 5880 5879 5879 5880 5879 5879 5879 5878 5878 5878 5877 5877 5877 5877 5876 5876 5875 5874 5874 5874 5873 5872 5872 5871 5870 5869 5867 5866 5865 5863 5861 5859 5857 5855 5852 5850 5848 5846 5847 5847 5848 5850 5851 5851 5851 5850 5849
5875 5876 5875 5875 5875 5874 5873 5874 5872 5871 5871 5870 5870 5869 5868 5868 5868 5867 5867 5866 5866 5865 5864 5864 5863 5862 5860 5859 5857 5855 5853 5851 5850 5848 5845 5842 5839 5836 5833 5832 5832 5833 5836 5839 5841 5842 5842 5841 5841
5870 5869 5869 5869 5870 5869 5868 5868 5866 5863 5864 5863 5862 5861 5861 5860 5860 5859 5858 5857 5856 5856 5855 5854 5853 5851 5850 5848 5845 5843 5841 5839 5837 5835 5833 5830 5826 5824 5820 5818 5819 5821 5825 5828 5830 5831 5832 5832 5832
5864 5863 5863 5863 5863 5863 5862 5861 5861 5855 5855 5854 5853 5852 5852 5852 5851 5850 5848 5848 5847 5846 5845 5844 5842 5841 5840 5837 5835 5831 5829 5826 5824 5823 5821 5817 5816 5814 5810 5807 5807 5810 5813 5817 5819 5822 5823 5823 5823
5858 5858 5858 5857 5857 5857 5855 5854 5853 5850 5847 5845 5843 5843 5842 5842 5841 5839 5838 5837 5836 5835 5833 5832 5831 5829 5827 5825 5822 5818 5816 5813 5811 5809 5807 5806 5804 5803 5802 5800 5799 5801 5804 5807 5809 5812 5813 5814 5814
5855 5855 5854 5854 5854 5853 5848 5847 5846 5842 5840 5838 5836 5835 5834 5833 5832 5830 5828 5827 5825 5823 5822 5820 5818 5816 5813 5811 5808 5805 5802 5799 5797 5795 5794 5793 5792 5792 5791 5791 5792 5793 5795 5797 5800 5803 5804 5805 5805
5851 5850 5850 5849 5849 5847 5844 5842 5840 5836 5833 5831 5830 5829 5827 5826 5824 5822 5820 5818 5816 5814 5811 5808 5805 5802 5799 5796 5793 5790 5787 5784 5783 5781 5781 5781 5781 5781 5782 5782 5783 5784 5786 5788 5791 5793 5795 5795 5795
5847 5846 5845 5844 5842 5841 5840 5838 5835 5832 5828 5826 5824 5822 5820 5819 5817 5815 5812 5809 5807 5804 5800 5797 5793 5789 5784 5780 5777 5774 5771 5769 5767 5767 5768 5769 5770 5772 5773 5773 5774 5775 5777 5779 5782 5784 5785 5786 5785
5845 5843 5841 5839 5837 5836 5835 5834 5831 5826 5823 5820 5818 5815 5813 5811 5808 5805 5802 5799 5796 5792 5788 5783 5778 5773 5768 5763 5759 5756 5754 5752 5752 5752 5754 5756 5758 5760 5762 5763 5765 5766 5768 5770 5773 5775 5775 5776 5776
5841 5840 5837 5834 5832 5830 5828 5829 5824 5821 5816 5813 5810 5807 5805 5802 5799 5796 5793 5789 5785 5780 5775 5769 5763 5757 5750 5744 5739 5737 5736 5736 5737 5738 5741 5743 5746 5749 5751 5753 5755 5757 5759 5762 5764 5765 5766 5767 5768
5836 5834 5831 5828 5825 5822 5818 5820 5816 5813 5807 5803 5800 5799 5796 5793 5790 5787 5783 5780 5775 5769 5763 5756 5750 5743 5735 5728 5723 5721 5721 5721 5723 5726 5729 5732 5736 5738 5741 5743 5746 5749 5751 5753 5755 5756 5758 5758 5759